Location: Cambroso
(45.2833°N, 12.0850°E)
Time: 16:42:52
(UTC+00:00)

IRS-1C Rocket - Pass Details

Date: 21 January 2021
Orbit: 801 x 805 km, 99.0° (Epoch: 26 February)

Event Time Altitude Azimuth Distance (km) Brightness Sun altitude
Rises 17:21:30 0° 159° (SSE) 3,298 7.2 -13.6°
Reaches altitude 10° 17:23:49 10° 157° (SSE) 2,371 6.5 -14.0°
Maximum altitude 17:29:03 76° 73° (ENE) 830 4.0 -14.9°
Drops below altitude 10° 17:34:19 10° 349° (NNW) 2,387 6.5 -15.8°
Sets 17:36:40 0° 348° (NNW) 3,322 7.3 -16.2°
